Emmonak, AK

5:21 AM AKST on December 03, 2016 (GMT -0900)
Emmonak

Weather History for PAEM - August, 2014

Change the Weather History Date:

Sunday, August 17, 2014

  Actual Average Record
Temperature  
Mean Temperature 56 °F -  
Max Temperature 62 °F 53 °F 71 °F (2007)
Min Temperature 51 °F 45 °F 42 °F (1996)
Degree Days  
Heating Degree Days 8    
Growing Degree Days 6 (Base 50)    
Moisture  
Dew Point 49 °F    
Average Humidity 76    
Maximum Humidity 82    
Minimum Humidity 63    
Precipitation  
Precipitation 0.02 in - - ()
Sea Level Pressure  
Sea Level Pressure 29.55 in    
Wind  
Wind Speed 5 mph (WSW)    
Max Wind Speed 16 mph    
Max Gust Speed 20 mph    
Visibility 9 miles    
Events      
Averages and records for this station are not official NWS values.
T = Trace of Precipitation, MM = Missing Value Source: NWS Daily Summary

Daily Weather History Graph

Daily Weather History Graph

Search for Another Location

Airport or City:

Trip Planner

Search our weather history database for the weather conditions in past years. The results will help you decide how hot, cold, wet, or windy it might be!

Date:

Astronomy

Aug. 17, 2014 Rise Set
Actual Time 7:03 AM AKDT 10:57 PM AKDT
Civil Twilight 6:05 AM AKDT 11:55 PM AKDT
Nautical Twilight 4:29 AM AKDT 1:28 AM AKDT
Astronomical Twilight Sun does not rise Sun does not rise
Moon 12:25 AM AKDT (8/17) 5:40 PM AKDT (8/17)
Length of Visible Light 17h 49m
Length of Day
15h 53m
Waning Gibbous, 47% of the Moon is Illuminated
Aug 17
Waning Gibbous
Aug 25
New
Sep 2
First Quarter
Sep 8
Full
Sep 15
Last Quarter

Hourly Weather History & Observations

Time (AKDT) Temp. Dew Point Humidity Pressure Visibility Wind Dir Wind Speed Gust Speed Precip Events Conditions
12:16 AM 55.4 °F 48.2 °F 77% 29.47 in 10.0 mi NNE 3.5 mph - N/A   Overcast
12:36 AM 53.6 °F 48.2 °F 82% 29.47 in 10.0 mi Calm Calm - N/A   Mostly Cloudy
12:56 AM 55.4 °F 48.2 °F 77% 29.48 in 10.0 mi Calm Calm - N/A   Partly Cloudy
1:16 AM 55.4 °F 48.2 °F 77% 29.48 in 10.0 mi Calm Calm - N/A   Clear
1:36 AM 53.6 °F 48.2 °F 82% 29.48 in 10.0 mi Calm Calm - N/A   Clear
1:56 AM 53.6 °F 46.4 °F 77% 29.48 in 10.0 mi Calm Calm - N/A   Clear
2:16 AM 51.8 °F 46.4 °F 82% 29.48 in 3.0 mi NW 3.5 mph - N/A   Mostly Cloudy
2:36 AM 51.8 °F 46.4 °F 82% 29.49 in 1.5 mi Calm Calm - N/A   Overcast
2:56 AM 53.6 °F 48.2 °F 82% 29.49 in 10.0 mi Calm Calm - N/A   Overcast
3:16 AM 53.6 °F 48.2 °F 82% 29.49 in 10.0 mi Calm Calm - N/A   Overcast
3:36 AM 53.6 °F 48.2 °F 82% 29.49 in 10.0 mi Calm Calm - N/A   Overcast
3:56 AM 55.4 °F 46.4 °F 72% 29.49 in 10.0 mi Calm Calm - N/A   Overcast
4:16 AM 55.4 °F 48.2 °F 77% 29.49 in 10.0 mi South 3.5 mph - N/A   Overcast
4:36 AM 55.4 °F 48.2 °F 77% 29.49 in 10.0 mi SE 3.5 mph - N/A   Overcast
4:56 AM 55.4 °F 48.2 °F 77% 29.50 in 10.0 mi South 3.5 mph - N/A   Overcast
5:16 AM 55.4 °F 48.2 °F 77% 29.50 in 10.0 mi WSW 3.5 mph - N/A   Overcast
5:36 AM 55.4 °F 48.2 °F 77% 29.50 in 8.0 mi Calm Calm - N/A   Overcast
5:56 AM 55.4 °F 48.2 °F 77% 29.50 in 10.0 mi Calm Calm - N/A   Mostly Cloudy
6:16 AM 55.4 °F 48.2 °F 77% 29.50 in 10.0 mi Calm Calm - N/A   Overcast
6:36 AM 57.2 °F 48.2 °F 72% 29.50 in 10.0 mi Calm Calm - N/A   Overcast
6:56 AM 55.4 °F 48.2 °F 77% 29.50 in 10.0 mi Calm Calm - N/A   Overcast
7:16 AM 53.6 °F 46.4 °F 77% 29.50 in 10.0 mi South 4.6 mph - N/A   Overcast
7:36 AM 55.4 °F 48.2 °F 77% 29.50 in 10.0 mi South 4.6 mph - N/A   Overcast
7:56 AM 55.4 °F 48.2 °F 77% 29.51 in 10.0 mi SSW 3.5 mph - N/A   Mostly Cloudy
8:16 AM 53.6 °F 48.2 °F 82% 29.51 in 10.0 mi South 3.5 mph - N/A   Mostly Cloudy
8:36 AM 53.6 °F 48.2 °F 82% 29.51 in 10.0 mi South 6.9 mph - N/A   Mostly Cloudy
8:56 AM 53.6 °F 48.2 °F 82% 29.52 in 10.0 mi South 3.5 mph - N/A   Clear
9:16 AM 55.4 °F 48.2 °F 77% 29.52 in 10.0 mi SSE 3.5 mph - N/A   Mostly Cloudy
9:36 AM 55.4 °F 50.0 °F 82% 29.53 in 10.0 mi South 3.5 mph - N/A   Overcast
9:56 AM 57.2 °F 51.8 °F 82% 29.52 in 10.0 mi SSW 3.5 mph - N/A   Overcast
10:16 AM 57.2 °F 51.8 °F 82% 29.53 in 5.0 mi Calm Calm - N/A   Mostly Cloudy
10:36 AM 59.0 °F 53.6 °F 82% 29.53 in 10.0 mi West 4.6 mph - N/A   Scattered Clouds
10:56 AM 60.8 °F 51.8 °F 72% 29.53 in 10.0 mi West 6.9 mph - N/A   Mostly Cloudy
11:16 AM 62.6 °F 51.8 °F 68% 29.53 in 10.0 mi WSW 9.2 mph - N/A   Partly Cloudy
11:36 AM 60.8 °F 50.0 °F 68% 29.53 in 10.0 mi West 8.1 mph - N/A   Partly Cloudy
11:56 AM 60.8 °F 50.0 °F 68% 29.54 in 10.0 mi West 9.2 mph - N/A   Scattered Clouds
12:16 PM 60.8 °F 50.0 °F 68% 29.54 in 10.0 mi West 8.1 mph - N/A   Scattered Clouds
12:36 PM 60.8 °F 50.0 °F 68% 29.54 in 10.0 mi West 11.5 mph - N/A   Mostly Cloudy
12:56 PM 60.8 °F 50.0 °F 68% 29.55 in 10.0 mi WSW 10.4 mph - N/A   Scattered Clouds
1:16 PM 60.8 °F 50.0 °F 68% 29.55 in 10.0 mi West 9.2 mph - N/A   Mostly Cloudy
1:36 PM 60.8 °F 48.2 °F 63% 29.55 in 10.0 mi WSW 10.4 mph - N/A   Overcast
1:56 PM 60.8 °F 50.0 °F 68% 29.55 in 10.0 mi WSW 10.4 mph - N/A   Overcast
2:16 PM 60.8 °F 50.0 °F 68% 29.56 in 10.0 mi West 11.5 mph - N/A   Overcast
2:36 PM 59.0 °F 50.0 °F 72% 29.56 in 10.0 mi West 9.2 mph - N/A   Overcast
2:56 PM 59.0 °F 50.0 °F 72% 29.57 in 10.0 mi West 10.4 mph - N/A   Overcast
3:16 PM 57.2 °F 50.0 °F 77% 29.57 in 10.0 mi West 11.5 mph - N/A   Mostly Cloudy
3:36 PM 57.2 °F 48.2 °F 72% 29.57 in 10.0 mi West 9.2 mph - N/A   Overcast
3:56 PM 57.2 °F 48.2 °F 72% 29.58 in 10.0 mi West 9.2 mph - N/A   Overcast
4:16 PM 57.2 °F 48.2 °F 72% 29.58 in 7.0 mi West 9.2 mph - N/A   Overcast
4:36 PM 55.4 °F 50.0 °F 82% 29.59 in 4.0 mi West 10.4 mph - N/A   Overcast
4:56 PM 55.4 °F 50.0 °F 82% 29.59 in 5.0 mi West 9.2 mph - N/A   Overcast
5:16 PM 57.2 °F 50.0 °F 77% 29.59 in 10.0 mi West 10.4 mph - N/A   Overcast
5:36 PM 55.4 °F 48.2 °F 77% 29.60 in 10.0 mi West 10.4 mph 17.3 mph N/A   Overcast
5:56 PM 55.4 °F 48.2 °F 77% 29.60 in 8.0 mi West 12.7 mph - N/A   Overcast
6:16 PM 55.4 °F 48.2 °F 77% 29.60 in 1.5 mi WNW 11.5 mph - N/A   Overcast
6:36 PM 55.4 °F 50.0 °F 82% 29.61 in 2.0 mi West 11.5 mph 16.1 mph N/A   Overcast
6:56 PM 55.4 °F 48.2 °F 77% 29.61 in 2.0 mi West 11.5 mph 16.1 mph 0.01 in   Overcast
7:16 PM 55.4 °F 48.2 °F 77% 29.62 in 1.5 mi West 12.7 mph 18.4 mph 0.01 in   Overcast
7:36 PM 55.4 °F 48.2 °F 77% 29.62 in 4.0 mi West 10.4 mph - 0.01 in   Overcast
7:56 PM 55.4 °F 48.2 °F 77% 29.62 in 10.0 mi West 11.5 mph - 0.01 in   Overcast
8:16 PM 55.4 °F 48.2 °F 77% 29.62 in 10.0 mi West 16.1 mph - N/A   Overcast
8:36 PM 55.4 °F 48.2 °F 77% 29.63 in 9.0 mi West 10.4 mph 16.1 mph N/A   Overcast
8:56 PM 55.4 °F 48.2 °F 77% 29.63 in 10.0 mi West 11.5 mph - N/A   Overcast
9:16 PM 55.4 °F 48.2 °F 77% 29.64 in 10.0 mi West 15.0 mph - N/A   Overcast
9:36 PM 55.4 °F 48.2 °F 77% 29.64 in 10.0 mi West 12.7 mph - N/A   Overcast
9:56 PM 55.4 °F 46.4 °F 72% 29.64 in 10.0 mi West 12.7 mph - N/A   Overcast
10:16 PM 55.4 °F 46.4 °F 72% 29.65 in 10.0 mi West 13.8 mph - N/A   Overcast
10:36 PM 55.4 °F 46.4 °F 72% 29.66 in 10.0 mi West 11.5 mph - N/A   Overcast
10:56 PM 55.4 °F 46.4 °F 72% 29.67 in 10.0 mi West 12.7 mph - N/A   Overcast
11:16 PM 55.4 °F 46.4 °F 72% 29.67 in 10.0 mi West 11.5 mph - N/A   Overcast
11:36 PM 55.4 °F 46.4 °F 72% 29.68 in 10.0 mi West 11.5 mph - N/A   Overcast
11:56 PM 55.4 °F 46.4 °F 72% 29.69 in 10.0 mi West 13.8 mph 19.6 mph N/A   Overcast